• In United Kingdom
  • List of Countries
  • For 7 days
  • Water Temperature
  • Satellite Maps
  • Weather Map
  • Weather Widgets
  • user-avatar
    Login

    Hourly Weather Kerns

    Today, 23 August, Wednesday

    Time Temperature Precipitation Wind Pressure Humidity
    00:00 +19°C° 0 mm 2 mps 763 mmHg 95%
    01:00 +18°C° 0 mm 2 mps 762 mmHg 95%
    02:00 +18°C° 0 mm 2 mps 762 mmHg 95%
    03:00 +18°C° 0 mm 2 mps 762 mmHg 95%
    04:00 +18°C° 0 mm 2 mps 762 mmHg 96%
    05:00 +18°C° 0 mm 2 mps 762 mmHg 96%
    06:00 +18°C° 0 mm 2 mps 763 mmHg 96%
    07:00 +18°C° 0 mm 3 mps 763 mmHg 96%
    08:00 +21°C° 0 mm 3 mps 763 mmHg 85%
    09:00 +25°C° 0 mm 3 mps 763 mmHg 73%
    10:00 +28°C° 0 mm 4 mps 763 mmHg 61%
    11:00 +29°C° 0 mm 4 mps 763 mmHg 56%
    12:00 +30°C° 0 mm 4 mps 762 mmHg 52%
    13:00 +32°C° 0 mm 4 mps 762 mmHg 47%
    14:00 +30°C° 0 mm 4 mps 761 mmHg 49%
    15:00 +30°C° 0 mm 4 mps 761 mmHg 50%
    16:00 +29°C° 0 mm 4 mps 761 mmHg 52%
    17:00 +27°C° 0 mm 4 mps 761 mmHg 64%
    18:00 +23°C° 0 mm 4 mps 761 mmHg 75%
    19:00 +21°C° 0 mm 3 mps 761 mmHg 87%
    20:00 +20°C° 0 mm 3 mps 762 mmHg 89%
    21:00 +20°C° 0 mm 3 mps 762 mmHg 92%
    22:00 +19°C° 0 mm 3 mps 762 mmHg 95%
    23:00 +19°C° 0 mm 3 mps 762 mmHg 95%

    Tomorrow, 24 August, Thursday

    Time Temperature Precipitation Wind Pressure Humidity
    00:00 +19°C° 0 mm 3 mps 762 mmHg 96%
    01:00 +19°C° 0 mm 3 mps 762 mmHg 96%
    02:00 +19°C° 0 mm 3 mps 761 mmHg 97%
    03:00 +19°C° 0 mm 2 mps 761 mmHg 97%
    04:00 +19°C° 0 mm 2 mps 761 mmHg 97%
    05:00 +19°C° 0 mm 2 mps 761 mmHg 97%
    06:00 +19°C° 0 mm 2 mps 761 mmHg 97%
    07:00 +19°C° 0 mm 2 mps 762 mmHg 97%
    08:00 +21°C° 0 mm 3 mps 762 mmHg 83%
    09:00 +25°C° 0 mm 3 mps 762 mmHg 70%
    10:00 +28°C° 0 mm 3 mps 762 mmHg 56%
    11:00 +29°C° 0 mm 3 mps 761 mmHg 51%
    12:00 +31°C° 0 mm 3 mps 761 mmHg 46%
    13:00 +33°C° 0 mm 3 mps 760 mmHg 41%
    14:00 +31°C° 0 mm 3 mps 759 mmHg 43%
    15:00 +32°C° 0 mm 4 mps 759 mmHg 46%
    16:00 +32°C° 0 mm 4 mps 758 mmHg 48%
    17:00 +28°C° 0 mm 3 mps 759 mmHg 61%
    18:00 +25°C° 0 mm 3 mps 759 mmHg 74%
    19:00 +22°C° 0 mm 3 mps 760 mmHg 87%
    20:00 +21°C° 0 mm 2 mps 760 mmHg 90%
    21:00 +20°C° 0 mm 2 mps 761 mmHg 92%
    22:00 +20°C° 0 mm 2 mps 761 mmHg 95%
    23:00 +20°C° 0 mm 2 mps 761 mmHg 95%

    Day after tomorrow, 25 August, Friday

    Time Temperature Precipitation Wind Pressure Humidity
    00:00 +19°C° 0 mm 2 mps 760 mmHg 95%
    01:00 +20°C° 0 mm 1 mps 760 mmHg 95%
    02:00 +19°C° 0 mm 2 mps 760 mmHg 94%
    03:00 +19°C° 0 mm 2 mps 760 mmHg 94%
    04:00 +19°C° 0 mm 2 mps 760 mmHg 94%
    05:00 +19°C° 0 mm 2 mps 760 mmHg 92%
    06:00 +19°C° 0 mm 2 mps 761 mmHg 90%
    07:00 +19°C° 0 mm 2 mps 761 mmHg 89%
    08:00 +21°C° 0 mm 3 mps 761 mmHg 75%
    09:00 +25°C° 0 mm 3 mps 761 mmHg 61%
    10:00 +28°C° 0 mm 4 mps 762 mmHg 47%
    11:00 +29°C° 0 mm 4 mps 761 mmHg 44%
    12:00 +30°C° 0 mm 4 mps 760 mmHg 42%
    13:00 +32°C° 0 mm 5 mps 760 mmHg 39%
    14:00 +32°C° 0 mm 5 mps 759 mmHg 40%
    15:00 +32°C° 0 mm 5 mps 759 mmHg 41%
    16:00 +30°C° 0 mm 5 mps 758 mmHg 41%
    17:00 +28°C° 0 mm 4 mps 759 mmHg 51%
    18:00 +25°C° 0 mm 4 mps 760 mmHg 60%
    19:00 +21°C° 0 mm 4 mps 760 mmHg 69%
    20:00 +21°C° 0 mm 4 mps 761 mmHg 68%
    21:00 +20°C° 0 mm 3 mps 761 mmHg 66%
    22:00 +19°C° 0 mm 3 mps 762 mmHg 64%
    23:00 +19°C° 0 mm 3 mps 761 mmHg 65%

    26 August, Saturday

    Time Temperature Precipitation Wind Pressure Humidity
    00:00 +19°C° 0 mm 3 mps 761 mmHg 65%
    01:00 +18°C° 0 mm 3 mps 761 mmHg 66%
    02:00 +18°C° 0 mm 4 mps 761 mmHg 73%
    03:00 +18°C° 0 mm 4 mps 760 mmHg 80%
    04:00 +18°C° 0 mm 4 mps 760 mmHg 87%
    05:00 +18°C° 0.1 mm 4 mps 761 mmHg 90%
    06:00 +19°C° 0.1 mm 4 mps 761 mmHg 92%
    07:00 +19°C° 0.1 mm 5 mps 762 mmHg 95%
    08:00 +21°C° 0.1 mm 5 mps 762 mmHg 88%
    09:00 +23°C° 0.1 mm 6 mps 762 mmHg 80%
    10:00 +24°C° 0.1 mm 6 mps 763 mmHg 73%
    11:00 +26°C° 0.1 mm 6 mps 762 mmHg 70%
    12:00 +27°C° 0.1 mm 6 mps 761 mmHg 67%
    13:00 +27°C° 0.1 mm 6 mps 761 mmHg 63%
    14:00 +27°C° 0 mm 6 mps 761 mmHg 64%
    15:00 +27°C° 0 mm 6 mps 760 mmHg 64%
    16:00 +26°C° 0 mm 6 mps 760 mmHg 64%
    17:00 +24°C° 0 mm 6 mps 761 mmHg 71%
    18:00 +22°C° 0 mm 6 mps 761 mmHg 78%
    19:00 +21°C° 0 mm 5 mps 762 mmHg 86%
    20:00 +20°C° 0 mm 5 mps 762 mmHg 88%
    21:00 +20°C° 0 mm 5 mps 763 mmHg 91%
    22:00 +19°C° 0 mm 5 mps 763 mmHg 94%
    23:00 +19°C° 0 mm 5 mps 763 mmHg 94%

    27 August, Sunday

    Time Temperature Precipitation Wind Pressure Humidity
    00:00 +19°C° 0 mm 5 mps 762 mmHg 94%
    01:00 +19°C° 0 mm 5 mps 762 mmHg 95%
    02:00 +19°C° 0 mm 5 mps 762 mmHg 94%
    03:00 +19°C° 0 mm 5 mps 761 mmHg 94%
    04:00 +19°C° 0 mm 5 mps 761 mmHg 94%
    05:00 +20°C° 0.1 mm 5 mps 762 mmHg 93%
    06:00 +20°C° 0.1 mm 5 mps 762 mmHg 92%
    07:00 +20°C° 0.1 mm 5 mps 763 mmHg 91%
    08:00 +22°C° 0 mm 6 mps 763 mmHg 83%
    09:00 +23°C° 0 mm 6 mps 763 mmHg 74%
    10:00 +26°C° 0 mm 6 mps 763 mmHg 66%
    11:00 +27°C° 0 mm 6 mps 762 mmHg 62%
    12:00 +28°C° 0 mm 6 mps 761 mmHg 58%
    13:00 +29°C° 0 mm 6 mps 761 mmHg 54%
    14:00 +28°C° 0 mm 6 mps 761 mmHg 56%
    15:00 +28°C° 0 mm 6 mps 760 mmHg 58%
    16:00 +28°C° 0 mm 6 mps 760 mmHg 60%
    17:00 +26°C° 0 mm 6 mps 761 mmHg 69%
    18:00 +23°C° 0 mm 5 mps 761 mmHg 78%
    19:00 +21°C° 0 mm 5 mps 762 mmHg 87%
    20:00 +21°C° 0.1 mm 5 mps 762 mmHg 90%
    21:00 +20°C° 0.1 mm 5 mps 762 mmHg 92%
    22:00 +20°C° 0.1 mm 5 mps 762 mmHg 95%
    23:00 +20°C° 0.2 mm 5 mps 762 mmHg 95%

    28 August, Monday

    Time Temperature Precipitation Wind Pressure Humidity
    00:00 +20°C° 0.2 mm 5 mps 761 mmHg 94%
    01:00 +20°C° 0.2 mm 5 mps 761 mmHg 94%
    02:00 +20°C° 0.1 mm 5 mps 761 mmHg 95%
    03:00 +20°C° 0.1 mm 5 mps 761 mmHg 95%
    04:00 +20°C° 0.1 mm 5 mps 760 mmHg 96%
    05:00 +20°C° 0.1 mm 5 mps 761 mmHg 96%
    06:00 +20°C° 0.1 mm 5 mps 761 mmHg 96%
    07:00 +20°C° 0.1 mm 5 mps 761 mmHg 96%
    08:00 +21°C° 0.1 mm 5 mps 762 mmHg 90%
    09:00 +23°C° 0.1 mm 5 mps 762 mmHg 84%
    10:00 +25°C° 0.1 mm 5 mps 762 mmHg 78%
    11:00 +25°C° 0.1 mm 5 mps 761 mmHg 77%
    12:00 +26°C° 0.1 mm 5 mps 761 mmHg 75%
    13:00 +26°C° 0.1 mm 5 mps 760 mmHg 73%
    14:00 +26°C° 0 mm 5 mps 760 mmHg 72%
    15:00 +26°C° 0 mm 5 mps 760 mmHg 71%
    16:00 +26°C° 0 mm 5 mps 760 mmHg 70%
    17:00 +25°C° 0 mm 5 mps 760 mmHg 77%
    18:00 +22°C° 0 mm 5 mps 761 mmHg 84%
    19:00 +21°C° 0 mm 4 mps 761 mmHg 91%
    20:00 +21°C° 0 mm 4 mps 762 mmHg 93%
    21:00 +20°C° 0 mm 4 mps 762 mmHg 94%
    22:00 +20°C° 0 mm 4 mps 762 mmHg 95%
    23:00 +19°C° 0 mm 4 mps 762 mmHg 96%
    Show more